QPF
0.00 0.00 0.00 0.00 0.00 0.00 0.00 0.00 0.00 0.00 0.00 0.00 0.00 0.00 0.00 0.00 0.00 0.00 0.00 0.00 0.00 0.00 0.00 0.00 0.00 0.00 0.00 0.00 0.00 0.00 0.00 0.00 0.00 0.00 0.00 0.00 0.00 0.00 0.00 0.00 0.00 0.00 0.00
0.00 0.00 0.00 0.00 0.00 0.00 0.00 0.00 0.00 0.00 0.00 0.00 0.00 0.00 0.00 0.00 0.00 0.00 0.00 0.00 0.00 0.00 0.00 0.00 0.00 0.00 0.00 0.00 0.00 0.00 0.00 0.00 0.00 0.00 0.00 0.00 0.00 0.00 0.00 0.00 0.00 0.00 0.00
0.01 0.00 0.00 0.00 0.00 0.00 0.00 0.00 0.00 0.00 0.00 0.00 0.00 0.00 0.00 0.00 0.00 0.00 0.00 0.00 0.00 0.00 0.00 0.00 0.00 0.00 0.00 0.00 0.00 0.00 0.00 0.00 0.00 0.00 0.00 0.00 0.00 0.00 0.00 0.00 0.00 0.00 0.00
0.01 0.00 0.00 0.00 0.00 0.00 0.00 0.00 0.00 0.00 0.00 0.00 0.00 0.00 0.00 0.00 0.00 0.00 0.00 0.00 0.00 0.00 0.00 0.00 0.00 0.00 0.00 0.00 0.00 0.00 0.00 0.00 0.00 0.00 0.00 0.00 0.00 0.00 0.00 0.00 0.00 0.00 0.00
0.01 0.00 0.00 0.00 0.00 0.00 0.00 0.00 0.00 0.00 0.00 0.00 0.00 0.00 0.00 0.00 0.00 0.00 0.00 0.00 0.00 0.00 0.00 0.00 0.00 0.00 0.00 0.00 0.00 0.00 0.00 0.00 0.00 0.00 0.00 0.00 0.00 0.00 0.00 0.00 0.00 0.00 0.00
0.01 0.02 0.05 0.02 0.00 0.00 0.00 0.00 0.00 0.00 0.00 0.00 0.00 0.00 0.00 0.00 0.00 0.00 0.00 0.00 0.00 0.00 0.00 0.00 0.00 0.00 0.00 0.00 0.00 0.00 0.00 0.00 0.00 0.00 0.00 0.00 0.00 0.00 0.00 0.00 0.00 0.00 0.00
0.11 0.32 0.20 0.05 0.00 0.00 0.00 0.00 0.00 0.00 0.00 0.00 0.00 0.00 0.00 0.00 0.00 0.00 0.00 0.00 0.00 0.00 0.00 0.00 0.00 0.00 0.00 0.00 0.00 0.00 0.00 0.00 0.00 0.00 0.00 0.00 0.00 0.00 0.00 0.00 0.00 0.00 0.00
0.22 0.26 0.31 0.16 0.12 0.02 0.00 0.00 0.00 0.00 0.00 0.00 0.00 0.00 0.00 0.00 0.00 0.00 0.00 0.00 0.00 0.00 0.00 0.00 0.00 0.00 0.00 0.00 0.00 0.00 0.00 0.00 0.00 0.00 0.00 0.00 0.00 0.00 0.00 0.00 0.00 0.00 0.00
0.28 0.30 0.17 0.14 0.08 0.05 0.00 0.00 0.00 0.00 0.00 0.00 0.00 0.00 0.00 0.00 0.00 0.00 0.00 0.00 0.00 0.00 0.00 0.00 0.00 0.00 0.00 0.00 0.00 0.00 0.00 0.00 0.00 0.00 0.00 0.00 0.00 0.00 0.00 0.00 0.00 0.00 0.00
0.31 0.23 0.10 0.08 0.02 0.03 0.00 0.00 0.00 0.00 0.00 0.00 0.00 0.00 0.00 0.00 0.00 0.00 0.00 0.00 0.00 0.00 0.00 0.00 0.00 0.00 0.00 0.00 0.00 0.00 0.00 0.00 0.00 0.00 0.00 0.00 0.00 0.00 0.00 0.00 0.00 0.00 0.00
0.14 0.08 0.04 0.02 0.01 0.00 0.00 0.00 0.00 0.00 0.00 0.00 0.00 0.00 0.00 0.00 0.00 0.00 0.00 0.00 0.00 0.00 0.00 0.00 0.00 0.00 0.00 0.00 0.00 0.00 0.00 0.00 0.00 0.00 0.00 0.00 0.00 0.00 0.00 0.00 0.00 0.00 0.00
0.06 0.01 0.00 0.02 0.05 0.00 0.00 0.00 0.00 0.00 0.00 0.00 0.00 0.00 0.00 0.00 0.00 0.00 0.00 0.00 0.00 0.00 0.00 0.00 0.00 0.00 0.00 0.00 0.00 0.00 0.00 0.00 0.00 0.00 0.00 0.00 0.00 0.00 0.00 0.00 0.00 0.00 0.00
0.00 0.00 0.00 0.00 0.02 0.00 0.00 0.00 0.00 0.00 0.00 0.00 0.00 0.00 0.00 0.00 0.00 0.00 0.00 0.00 0.00 0.00 0.00 0.00 0.00 0.00 0.00 0.00 0.00 0.00 0.00 0.00 0.00 0.00 0.00 0.00 0.00 0.00 0.00 0.00 0.00 0.00 0.00
0.00 0.00 0.00 0.00 0.00 0.00 0.00 0.00 0.00 0.00 0.00 0.00 0.00 0.00 0.00 0.00 0.00 0.00 0.00 0.00 0.00 0.00 0.00 0.00 0.00 0.00 0.00 0.00 0.00 0.00 0.00 0.00 0.00 0.00 0.00 0.00 0.00 0.00 0.00 0.00 0.00 0.00 0.00
0.00 0.00 0.00 0.00 0.00 0.01 0.00 0.00 0.00 0.00 0.00 0.00 0.00 0.00 0.00 0.00 0.00 0.00 0.00 0.00 0.00 0.00 0.00 0.00 0.00 0.00 0.00 0.00 0.00 0.00 0.00 0.00 0.00 0.00 0.00 0.00 0.00 0.00 0.00 0.00 0.00 0.00 0.00
0.00 0.00 0.00 0.00 0.00 0.00 0.00 0.00 0.00 0.00 0.00 0.00 0.00 0.00 0.00 0.00 0.00 0.00 0.00 0.00 0.00 0.00 0.00 0.00 0.00 0.00 0.00 0.00 0.00 0.00 0.00 0.00 0.00 0.00 0.00 0.00 0.00 0.00 0.00 0.00 0.00 0.00 0.00
0.00 0.00 0.00 0.00 0.00 0.00 0.00 0.00 0.00 0.00 0.00 0.00 0.00 0.00 0.00 0.00 0.00 0.00 0.01 0.00 0.00 0.00 0.00 0.00 0.00 0.00 0.00 0.00 0.00 0.00 0.00 0.00 0.00 0.00 0.00 0.00 0.00 0.00 0.00 0.00 0.00 0.00 0.00
0.00 0.00 0.00 0.00 0.00 0.00 0.00 0.00 0.00 0.00 0.00 0.00 0.00 0.01 0.04 0.03 0.01 0.00 0.00 0.00 0.00 0.00 0.00 0.00 0.00 0.00 0.00 0.00 0.00 0.00 0.00 0.00 0.00 0.00 0.00 0.00 0.00 0.00 0.00 0.00 0.00 0.00 0.00
0.00 0.00 0.00 0.00 0.00 0.00 0.00 0.00 0.00 0.00 0.00 0.00 0.01 0.03 0.09 0.04 0.01 0.00 0.00 0.00 0.00 0.00 0.00 0.00 0.00 0.00 0.00 0.00 0.00 0.00 0.00 0.00 0.00 0.00 0.00 0.00 0.00 0.00 0.00 0.00 0.00 0.00 0.00
0.00 0.00 0.00 0.00 0.00 0.00 0.00 0.00 0.00 0.00 0.00 0.04 0.05 0.07 0.06 0.02 0.00 0.00 0.00 0.00 0.00 0.00 0.00 0.00 0.00 0.00 0.00 0.00 0.00 0.00 0.00 0.00 0.00 0.00 0.00 0.00 0.00 0.00 0.00 0.00 0.00 0.00 0.00
0.00 0.00 0.00 0.00 0.00 0.00 0.00 0.00 0.00 0.00 0.01 0.06 0.07 0.03 0.00 0.00 0.00 0.00 0.00 0.00 0.00 0.00 0.00 0.00 0.00 0.00 0.00 0.00 0.00 0.00 0.00 0.00 0.00 0.00 0.00 0.00 0.00 0.00 0.00 0.00 0.00 0.00 0.00
0.00 0.00 0.00 0.00 0.00 0.00 0.00 0.00 0.00 0.00 0.01 0.04 0.05 0.00 0.00 0.00 0.00 0.00 0.00 0.00 0.00 0.00 0.00 0.00 0.00 0.00 0.00 0.00 0.00 0.00 0.00 0.00 0.00 0.00 0.00 0.00 0.00 0.00 0.00 0.00 0.00 0.00 0.00
0.00 0.00 0.00 0.00 0.00 0.00 0.00 0.00 0.00 0.00 0.00 0.05 0.03 0.00 0.00 0.00 0.00 0.00 0.00 0.00 0.00 0.00 0.00 0.00 0.00 0.00 0.00 0.00 0.00 0.00 0.00 0.00 0.00 0.00 0.00 0.00 0.00 0.00 0.00 0.00 0.00 0.00 0.00
0.00 0.00 0.00 0.00 0.00 0.00 0.00 0.00 0.00 0.00 0.01 0.02 0.01 0.00 0.00 0.00 0.00 0.00 0.00 0.00 0.00 0.00 0.00 0.00 0.00 0.00 0.00 0.00 0.00 0.00 0.00 0.00 0.00 0.00 0.00 0.00 0.00 0.00 0.00 0.00 0.00 0.00 0.00
0.00 0.00 0.00 0.00 0.00 0.01 0.02 0.01 0.02 0.00 0.02 0.04 0.01 0.00 0.00 0.00 0.00 0.00 0.00 0.00 0.00 0.00 0.00 0.00 0.00 0.00 0.00 0.00 0.00 0.00 0.00 0.00 0.00 0.00 0.00 0.00 0.00 0.00 0.00 0.00 0.00 0.00 0.00
0.00 0.00 0.00 0.00 0.02 0.13 0.16 0.01 0.00 0.00 0.01 0.01 0.01 0.01 0.00 0.00 0.00 0.00 0.00 0.00 0.00 0.00 0.00 0.00 0.00 0.00 0.00 0.00 0.00 0.00 0.00 0.00 0.00 0.00 0.00 0.00 0.00 0.00 0.00 0.00 0.00 0.00 0.00
MSLP
1014.23 1014.86 1015.42 1015.70 1016.06 1016.23 1016.54 1016.83 1017.14 1017.59 1017.88 1018.25 1018.58 1019.05 1019.26 1019.85 1020.01 1020.27 1020.44 1020.44 1020.65 1020.89 1020.90 1021.19 1021.34 1021.42 1021.55 1021.92 1022.16 1022.12 1022.44 1022.37 1022.37 1022.25 1022.24 1022.13 1022.09 1022.05 1022.17 1022.10 1021.63 1021.55 1021.88
1014.22 1014.83 1015.67 1015.94 1016.34 1016.54 1016.74 1017.11 1017.46 1017.89 1018.28 1018.62 1018.92 1019.32 1019.78 1019.96 1020.44 1020.41 1020.63 1020.69 1020.83 1021.09 1021.26 1021.42 1021.49 1021.73 1021.85 1022.28 1022.45 1022.68 1022.78 1022.75 1022.70 1022.68 1022.64 1022.54 1022.62 1022.69 1022.78 1022.69 1022.51 1022.21 1022.17
1014.53 1015.04 1015.71 1016.24 1016.58 1016.90 1017.24 1017.53 1017.91 1018.21 1018.62 1018.92 1019.24 1019.81 1020.07 1020.41 1020.64 1020.81 1021.20 1021.08 1021.24 1021.12 1021.28 1021.48 1021.51 1021.84 1022.00 1022.57 1022.84 1023.25 1023.33 1023.16 1023.24 1023.26 1022.98 1022.70 1023.00 1023.30 1023.28 1023.16 1023.10 1022.89 1022.69
1014.80 1015.27 1015.80 1016.60 1016.92 1017.21 1017.67 1017.96 1018.32 1018.50 1018.91 1019.24 1019.31 1019.94 1020.30 1020.63 1020.98 1021.16 1021.39 1021.54 1021.54 1021.41 1021.47 1021.67 1021.74 1022.24 1022.61 1022.92 1023.14 1023.37 1023.59 1023.66 1023.71 1023.59 1023.26 1023.22 1023.37 1023.85 1023.72 1023.66 1023.51 1023.38 1023.25
1014.91 1015.52 1016.18 1016.59 1017.05 1017.50 1017.88 1018.07 1018.36 1018.71 1019.11 1019.70 1019.38 1020.15 1020.49 1020.85 1021.11 1021.56 1021.52 1021.62 1021.87 1021.84 1021.66 1022.09 1022.27 1022.65 1023.02 1023.26 1023.54 1023.92 1023.94 1023.99 1024.00 1023.75 1023.36 1023.60 1023.60 1024.10 1024.15 1024.05 1023.95 1023.94 1023.73
1015.02 1015.71 1016.52 1016.60 1017.01 1017.34 1017.75 1018.30 1018.85 1019.00 1019.42 1019.87 1020.03 1020.43 1020.87 1021.32 1021.73 1021.90 1021.88 1022.10 1022.28 1022.27 1022.37 1022.57 1022.92 1023.14 1023.49 1023.71 1023.82 1024.20 1024.22 1024.55 1024.12 1023.97 1023.90 1024.21 1024.03 1024.37 1024.46 1024.57 1024.53 1024.53 1024.30
1015.48 1016.17 1016.72 1016.91 1017.21 1017.45 1017.75 1018.28 1019.04 1019.12 1019.79 1019.98 1020.50 1020.65 1020.96 1021.46 1021.93 1022.30 1022.31 1022.44 1022.76 1022.78 1022.78 1022.89 1023.14 1023.48 1023.69 1024.00 1024.31 1024.38 1024.67 1024.77 1024.20 1024.26 1024.39 1024.44 1024.66 1024.70 1024.72 1024.67 1024.70 1024.81 1024.83
1015.88 1016.29 1017.02 1017.70 1018.00 1017.80 1017.83 1018.65 1019.03 1019.52 1020.13 1020.31 1020.97 1021.11 1021.36 1021.71 1022.25 1022.43 1022.66 1022.85 1023.09 1023.20 1023.45 1023.37 1023.59 1023.68 1024.06 1024.34 1024.44 1024.84 1025.01 1024.91 1024.53 1024.54 1024.57 1024.69 1025.11 1025.03 1025.25 1025.15 1025.10 1025.21 1025.19
1016.07 1016.54 1017.33 1018.19 1018.77 1018.70 1018.64 1019.07 1019.28 1020.11 1020.17 1021.05 1021.42 1021.59 1021.92 1022.15 1022.40 1022.63 1023.08 1023.18 1023.34 1023.61 1023.74 1023.84 1023.91 1024.21 1024.32 1024.83 1024.76 1025.23 1025.30 1025.32 1024.79 1024.72 1024.85 1024.89 1025.38 1025.35 1025.47 1025.53 1025.54 1025.47 1025.33
1016.82 1016.91 1017.73 1018.56 1019.15 1019.47 1019.85 1019.62 1019.49 1019.72 1020.75 1021.34 1021.37 1021.85 1022.29 1022.43 1022.66 1023.07 1023.48 1023.69 1023.77 1023.93 1024.04 1024.21 1024.27 1024.62 1024.90 1024.98 1025.47 1025.44 1025.45 1025.47 1025.17 1025.12 1025.15 1025.29 1025.74 1025.66 1025.62 1025.71 1025.84 1025.84 1025.80
1017.89 1018.27 1018.59 1019.44 1019.84 1019.61 1020.24 1020.05 1020.20 1020.10 1021.27 1021.55 1021.72 1022.36 1022.57 1022.60 1023.01 1023.20 1023.70 1023.73 1023.99 1024.18 1024.23 1024.47 1024.61 1024.89 1025.08 1025.33 1025.73 1025.67 1025.42 1025.39 1025.49 1025.28 1025.29 1025.81 1025.81 1025.81 1025.85 1025.90 1025.90 1026.20 1026.12
1018.73 1019.16 1019.00 1018.68 1020.41 1019.81 1020.00 1020.37 1020.64 1021.11 1021.45 1021.62 1021.79 1022.55 1022.61 1023.14 1023.24 1023.41 1023.77 1024.01 1024.32 1024.66 1024.70 1024.89 1024.95 1025.31 1025.11 1025.35 1025.77 1025.79 1025.69 1025.82 1025.85 1025.74 1025.80 1026.02 1025.75 1025.92 1026.06 1026.01 1025.95 1026.21 1026.37
1018.87 1019.21 1019.38 1019.30 1020.12 1020.34 1020.28 1020.73 1020.96 1021.65 1021.90 1021.77 1022.27 1022.67 1022.94 1023.31 1023.63 1023.72 1023.83 1024.23 1024.43 1024.80 1024.91 1025.08 1025.40 1025.45 1025.67 1025.82 1026.01 1025.84 1026.00 1026.12 1026.38 1026.17 1026.14 1026.25 1025.99 1025.85 1025.99 1026.01 1026.09 1026.28 1026.54
1019.11 1019.75 1019.79 1019.81 1020.47 1020.90 1020.83 1021.45 1021.77 1021.84 1021.37 1021.86 1022.40 1022.68 1023.09 1023.37 1023.68 1023.82 1023.95 1024.46 1024.83 1025.05 1025.11 1025.35 1025.70 1025.98 1026.26 1026.39 1026.41 1026.31 1026.51 1026.49 1026.72 1026.50 1026.52 1026.49 1026.17 1026.05 1025.77 1025.94 1026.22 1026.37 1026.65
1019.45 1020.01 1020.23 1020.21 1020.67 1020.84 1021.33 1022.01 1021.94 1021.47 1021.58 1022.18 1022.37 1022.78 1022.99 1023.36 1023.63 1024.13 1024.44 1024.71 1025.06 1025.09 1025.30 1025.57 1025.77 1026.05 1026.19 1026.66 1026.77 1026.95 1026.83 1026.92 1026.92 1026.58 1026.67 1026.93 1026.41 1026.23 1025.97 1025.84 1026.19 1026.51 1026.83
1019.61 1019.94 1020.45 1020.59 1020.48 1020.81 1021.27 1021.72 1021.56 1021.51 1021.88 1022.27 1022.60 1022.87 1023.12 1023.32 1023.73 1024.10 1024.54 1024.80 1025.07 1025.32 1025.54 1025.41 1025.87 1026.12 1026.49 1026.82 1027.06 1027.07 1027.19 1027.19 1027.06 1027.03 1026.84 1026.70 1026.75 1026.35 1026.09 1025.86 1026.23 1026.54 1026.93
1019.49 1019.75 1020.00 1020.37 1020.63 1020.91 1021.15 1021.33 1021.32 1021.54 1021.90 1022.11 1022.57 1022.75 1023.11 1023.29 1023.75 1024.19 1024.62 1024.90 1025.30 1025.68 1025.82 1025.94 1026.29 1026.67 1026.67 1027.09 1027.36 1027.37 1027.39 1027.37 1027.28 1027.36 1027.17 1026.99 1026.81 1026.87 1026.52 1026.37 1026.47 1026.77 1026.90
1018.95 1019.24 1019.76 1020.10 1020.27 1020.52 1020.87 1021.07 1021.26 1021.56 1022.01 1022.31 1022.64 1022.89 1023.14 1023.59 1023.77 1024.26 1024.64 1025.03 1025.38 1025.80 1025.94 1026.18 1026.33 1026.87 1026.95 1027.06 1027.37 1027.48 1027.49 1027.50 1027.68 1027.71 1027.58 1027.36 1027.30 1027.12 1027.07 1027.00 1026.96 1027.10 1027.16
1018.66 1019.11 1019.64 1019.96 1020.09 1020.29 1020.61 1021.09 1021.38 1021.62 1021.88 1022.46 1022.76 1023.00 1023.46 1023.67 1023.93 1024.17 1024.56 1025.13 1025.53 1025.79 1026.24 1026.34 1026.59 1026.80 1027.08 1027.10 1027.27 1027.53 1027.79 1027.87 1027.99 1027.83 1027.74 1027.70 1027.75 1027.61 1027.39 1027.65 1027.58 1027.48 1027.30
1018.43 1018.86 1019.35 1019.65 1019.83 1020.36 1020.61 1021.08 1021.36 1021.62 1022.08 1022.45 1022.72 1023.06 1023.31 1023.63 1024.13 1024.17 1024.85 1025.31 1025.48 1025.87 1026.24 1026.43 1026.75 1027.19 1027.26 1027.41 1027.60 1027.86 1027.93 1027.96 1028.14 1028.09 1027.98 1027.88 1027.87 1028.00 1027.92 1027.82 1027.62 1027.67 1027.77
1017.82 1018.26 1018.62 1019.29 1019.61 1020.12 1020.53 1020.85 1021.35 1021.60 1022.02 1022.52 1022.80 1022.87 1023.22 1023.57 1023.96 1024.37 1024.78 1025.28 1025.62 1025.78 1026.30 1026.65 1026.98 1027.05 1027.32 1027.58 1027.57 1027.63 1027.89 1027.99 1028.03 1027.93 1028.06 1028.00 1028.01 1028.10 1028.08 1027.87 1027.59 1027.61 1027.67
1017.10 1017.65 1018.18 1018.63 1019.12 1019.54 1019.99 1020.38 1020.83 1021.35 1021.94 1022.21 1022.68 1022.88 1023.14 1023.49 1023.87 1024.20 1024.60 1025.08 1025.56 1026.08 1026.50 1026.67 1026.80 1027.20 1027.52 1027.88 1027.40 1027.09 1026.86 1027.35 1027.45 1027.69 1027.92 1027.93 1028.02 1028.02 1027.93 1028.04 1027.94 1027.60 1027.47
1016.55 1017.00 1017.51 1018.14 1018.63 1018.98 1019.43 1020.05 1020.82 1021.44 1022.04 1022.61 1022.85 1022.93 1023.14 1023.62 1023.83 1024.16 1024.51 1025.00 1025.50 1025.87 1026.30 1026.66 1026.87 1027.07 1027.28 1027.89 1027.72 1026.96 1026.58 1026.61 1027.11 1027.40 1027.65 1027.77 1027.97 1027.74 1027.78 1027.77 1027.85 1027.85 1027.79
1015.64 1016.30 1016.85 1017.45 1017.95 1018.60 1019.39 1019.63 1019.89 1020.37 1021.00 1021.64 1022.16 1022.61 1023.12 1023.57 1023.77 1024.10 1024.60 1025.08 1025.51 1025.93 1026.39 1026.79 1027.14 1027.40 1027.07 1026.93 1027.25 1027.01 1026.93 1027.14 1026.84 1026.64 1027.22 1027.40 1027.46 1027.39 1027.38 1027.48 1027.64 1027.85 1028.01
1015.07 1015.63 1016.28 1017.03 1017.58 1018.35 1018.74 1019.25 1019.84 1020.05 1020.67 1021.43 1022.08 1022.57 1023.09 1023.61 1023.75 1024.06 1024.56 1025.08 1025.29 1025.72 1026.29 1026.69 1027.08 1027.44 1027.46 1026.71 1026.58 1026.76 1027.05 1027.17 1027.34 1027.09 1026.40 1026.73 1027.09 1027.06 1027.17 1027.52 1027.66 1027.74 1027.88
1014.35 1015.01 1015.69 1016.45 1017.40 1018.18 1018.87 1019.07 1019.20 1019.68 1020.43 1021.17 1021.78 1022.33 1022.86 1023.53 1023.89 1024.19 1024.48 1024.78 1025.06 1025.67 1026.26 1026.76 1027.04 1026.87 1026.92 1026.42 1026.32 1026.67 1026.58 1026.63 1026.64 1026.84 1026.65 1026.59 1026.76 1027.12 1027.12 1026.87 1026.80 1027.19 1027.51
Thickness
5716 5714 5710 5709 5706 5706 5704 5702 5700 5696 5695 5693 5692 5687 5686 5680 5681 5679 5677 5677 5674 5671 5672 5669 5668 5667 5667 5664 5662 5662 5657 5657 5656 5657 5656 5656 5656 5655 5653 5653 5656 5655 5652
5711 5709 5704 5702 5700 5699 5698 5695 5693 5689 5687 5685 5684 5681 5677 5677 5674 5675 5673 5672 5670 5667 5666 5665 5665 5663 5663 5659 5657 5654 5653 5653 5653 5652 5651 5651 5649 5648 5646 5647 5647 5649 5648
5704 5701 5698 5695 5693 5690 5688 5687 5685 5682 5679 5678 5677 5672 5671 5669 5669 5668 5663 5665 5664 5666 5664 5662 5663 5661 5660 5655 5652 5647 5647 5648 5646 5645 5646 5646 5643 5641 5639 5640 5640 5641 5642
5696 5693 5691 5687 5685 5684 5681 5680 5677 5676 5673 5672 5672 5668 5666 5664 5662 5662 5659 5658 5658 5660 5660 5658 5658 5654 5652 5649 5648 5645 5643 5642 5640 5639 5641 5640 5637 5632 5634 5634 5634 5635 5634
5689 5685 5682 5681 5679 5677 5675 5675 5672 5670 5667 5663 5667 5662 5660 5658 5658 5654 5655 5655 5652 5653 5656 5651 5651 5649 5647 5645 5642 5637 5636 5635 5633 5631 5636 5633 5631 5626 5626 5626 5626 5626 5628
5684 5679 5676 5678 5675 5673 5671 5667 5662 5663 5660 5658 5657 5655 5652 5650 5647 5647 5648 5646 5645 5646 5646 5645 5644 5644 5640 5639 5637 5633 5632 5625 5626 5626 5626 5623 5625 5622 5621 5619 5618 5616 5618
5676 5669 5669 5668 5667 5665 5664 5661 5655 5657 5654 5652 5649 5649 5648 5644 5642 5640 5641 5640 5637 5638 5640 5641 5640 5637 5637 5634 5630 5628 5623 5621 5623 5621 5618 5618 5616 5616 5615 5615 5613 5610 5608
5667 5665 5659 5655 5651 5653 5656 5652 5651 5650 5645 5644 5640 5640 5641 5640 5637 5636 5634 5632 5631 5632 5632 5635 5635 5634 5631 5628 5626 5621 5618 5618 5619 5617 5615 5612 5609 5609 5604 5605 5604 5602 5601
5661 5659 5653 5647 5642 5641 5642 5644 5645 5639 5640 5634 5633 5631 5632 5632 5631 5630 5627 5628 5628 5628 5628 5628 5629 5626 5626 5620 5620 5614 5612 5611 5612 5612 5609 5607 5603 5601 5598 5595 5594 5594 5594
5651 5651 5646 5639 5636 5629 5626 5634 5638 5638 5629 5627 5628 5628 5626 5626 5626 5622 5621 5621 5623 5622 5623 5622 5623 5620 5617 5617 5610 5610 5610 5607 5606 5605 5603 5600 5593 5591 5591 5588 5585 5584 5583
5639 5636 5634 5625 5619 5623 5618 5623 5626 5630 5619 5621 5624 5621 5620 5622 5620 5621 5618 5620 5619 5618 5620 5618 5618 5615 5613 5611 5606 5606 5606 5604 5600 5600 5596 5590 5586 5584 5582 5580 5578 5573 5572
5625 5625 5627 5624 5602 5617 5618 5619 5620 5616 5618 5619 5621 5614 5618 5616 5617 5618 5617 5616 5613 5611 5613 5612 5614 5610 5610 5606 5601 5600 5598 5594 5591 5590 5587 5585 5583 5578 5574 5573 5571 5566 5562
5621 5619 5619 5616 5604 5607 5613 5614 5616 5613 5611 5614 5614 5613 5615 5614 5613 5614 5614 5611 5609 5607 5607 5608 5606 5604 5602 5598 5595 5596 5593 5589 5583 5582 5581 5577 5576 5572 5569 5566 5562 5557 5552
5612 5607 5609 5608 5602 5602 5607 5604 5605 5606 5613 5614 5612 5614 5613 5612 5610 5610 5610 5606 5604 5603 5605 5603 5600 5597 5592 5590 5589 5589 5585 5580 5574 5573 5570 5569 5567 5563 5562 5559 5554 5550 5544
5602 5598 5599 5602 5599 5602 5599 5594 5598 5609 5612 5612 5613 5611 5612 5609 5610 5604 5604 5601 5598 5600 5599 5597 5596 5591 5590 5584 5582 5577 5575 5571 5568 5566 5561 5558 5557 5554 5551 5549 5545 5540 5534
5598 5595 5593 5596 5600 5599 5600 5599 5604 5610 5611 5611 5610 5610 5609 5608 5606 5603 5600 5597 5597 5596 5595 5597 5590 5586 5581 5576 5572 5570 5566 5561 5559 5554 5550 5548 5545 5544 5541 5539 5534 5530 5524
5601 5601 5600 5599 5600 5601 5604 5605 5609 5611 5611 5612 5609 5610 5609 5608 5604 5599 5597 5596 5595 5591 5590 5588 5582 5576 5573 5567 5562 5559 5555 5550 5546 5542 5538 5536 5533 5530 5529 5526 5522 5517 5514
5609 5608 5606 5605 5609 5609 5608 5608 5611 5611 5609 5608 5607 5608 5606 5602 5601 5599 5596 5593 5591 5586 5584 5580 5576 5568 5565 5559 5553 5548 5543 5538 5533 5529 5526 5523 5520 5517 5515 5513 5509 5505 5502
5616 5613 5609 5610 5611 5612 5612 5609 5610 5610 5610 5605 5605 5604 5601 5599 5598 5597 5594 5589 5587 5582 5576 5572 5567 5561 5554 5550 5545 5537 5531 5526 5522 5519 5515 5511 5507 5504 5502 5498 5496 5493 5491
5620 5618 5614 5614 5614 5611 5613 5611 5610 5609 5604 5603 5602 5599 5599 5597 5593 5594 5588 5584 5581 5575 5568 5563 5557 5549 5544 5538 5532 5526 5521 5516 5511 5508 5504 5500 5497 5491 5487 5483 5481 5478 5476
5626 5624 5622 5617 5617 5615 5613 5611 5606 5605 5603 5600 5598 5600 5597 5594 5592 5588 5585 5579 5572 5567 5560 5554 5546 5542 5535 5528 5524 5519 5511 5507 5504 5499 5493 5488 5484 5478 5474 5471 5469 5464 5460
5631 5627 5624 5622 5620 5618 5615 5611 5609 5606 5602 5599 5596 5596 5595 5591 5588 5585 5580 5573 5566 5558 5551 5545 5540 5533 5525 5516 5517 5515 5515 5506 5499 5491 5483 5477 5471 5466 5462 5456 5452 5450 5446
5635 5633 5630 5625 5622 5620 5617 5612 5606 5602 5597 5594 5593 5593 5590 5586 5583 5578 5574 5566 5559 5551 5544 5537 5531 5524 5518 5508 5505 5508 5507 5504 5489 5482 5473 5466 5459 5455 5450 5444 5437 5432 5427
5641 5638 5634 5630 5626 5621 5614 5613 5611 5609 5604 5599 5596 5592 5586 5581 5577 5570 5564 5557 5550 5543 5535 5527 5519 5510 5508 5505 5497 5494 5490 5482 5481 5477 5466 5458 5450 5443 5436 5427 5420 5411 5404
5646 5642 5639 5632 5628 5620 5617 5614 5608 5607 5603 5596 5592 5587 5581 5573 5569 5564 5556 5548 5543 5536 5527 5519 5510 5501 5496 5496 5493 5484 5475 5469 5461 5459 5460 5449 5437 5428 5419 5407 5398 5389 5381
5649 5644 5640 5633 5624 5617 5611 5610 5610 5607 5600 5594 5588 5583 5576 5567 5560 5554 5548 5541 5536 5527 5516 5508 5502 5497 5491 5489 5482 5472 5468 5462 5455 5446 5441 5434 5424 5410 5399 5390 5380 5367 5357